Weather History for KALW - October, 2013

Change the Weather History Date:

Tuesday, October 1, 2013

  Actual Average Record
Temperature  
Mean Temperature 52 °F -  
Max Temperature 59 °F 74 °F 91 °F (1997)
Min Temperature 46 °F 49 °F 32 °F (1950)
Degree Days  
Heating Degree Days 14    
Growing Degree Days 2 (Base 50)    
Moisture  
Dew Point 41 °F    
Average Humidity 67    
Maximum Humidity 80    
Minimum Humidity 47    
Precipitation  
Precipitation 0.02 in - - ()
Sea Level Pressure  
Sea Level Pressure 30.06 in    
Wind  
Wind Speed 8 mph (South)    
Max Wind Speed 15 mph    
Max Gust Speed -    
Visibility 10 miles    
Events Rain    
Averages and records for this station are not official NWS values.
T = Trace of Precipitation, MM = Missing Value Source: NWS Daily Summary

Daily Weather History Graph

Daily Weather History Graph

Search for Another Location

Airport or City:

Trip Planner

Search our weather history database for the weather conditions in past years. The results will help you decide how hot, cold, wet, or windy it might be!

Date:

Astronomy

Oct. 01, 2013 Rise Set
Actual Time 6:52 AM PDT 6:32 PM PDT
Civil Twilight 6:22 AM PDT 7:02 PM PDT
Nautical Twilight 5:47 AM PDT 7:36 PM PDT
Astronomical Twilight 5:12 AM PDT 8:12 PM PDT
Moon 3:21 AM PDT (10/1) 4:46 PM PDT (10/1)
Length of Visible Light 12h 40m
Length of Day
11h 40m
Waning Crescent, 11% of the Moon is Illuminated
Oct 1
Waning Crescent
Oct 4
New
Oct 11
First Quarter
Oct 18
Full
Oct 26
Last Quarter

Hourly Weather History & Observations

Time (PDT) Temp. Dew Point Humidity Pressure Visibility Wind Dir Wind Speed Gust Speed Precip Events Conditions
12:53 AM 53.1 °F 42.1 °F 66% 29.99 in 10.0 mi South 8.1 mph - N/A   Overcast
1:53 AM 51.1 °F 43.0 °F 74% 30.00 in 10.0 mi South 8.1 mph - N/A   Mostly Cloudy
2:53 AM 48.0 °F 42.1 °F 80% 30.00 in 10.0 mi East 3.5 mph - N/A   Mostly Cloudy
3:53 AM 48.9 °F 41.0 °F 74% 30.00 in 10.0 mi East 3.5 mph - N/A   Mostly Cloudy
4:53 AM 51.1 °F 37.9 °F 61% 29.99 in 10.0 mi South 4.6 mph - N/A   Overcast
5:53 AM 51.1 °F 39.0 °F 63% 30.00 in 10.0 mi South 8.1 mph - N/A   Overcast
6:53 AM 51.1 °F 39.0 °F 63% 30.00 in 10.0 mi South 4.6 mph - N/A   Overcast
7:53 AM 51.1 °F 37.9 °F 61% 30.01 in 10.0 mi South 8.1 mph - N/A   Mostly Cloudy
8:53 AM 55.9 °F 39.0 °F 53% 30.01 in 10.0 mi SSW 9.2 mph - N/A   Mostly Cloudy
9:53 AM 57.0 °F 37.0 °F 47% 30.02 in 10.0 mi SSW 10.4 mph - N/A   Mostly Cloudy
10:53 AM 55.0 °F 43.0 °F 64% 30.03 in 10.0 mi West 8.1 mph - 0.00 in Rain Light Rain
11:53 AM 55.9 °F 39.9 °F 55% 30.03 in 10.0 mi WNW 5.8 mph - 0.00 in   Overcast
12:53 PM 57.0 °F 39.9 °F 53% 30.02 in 10.0 mi South 5.8 mph - N/A   Overcast
1:53 PM 57.9 °F 39.0 °F 49% 30.02 in 10.0 mi West 9.2 mph - N/A   Overcast
2:53 PM 52.0 °F 44.1 °F 74% 30.07 in 10.0 mi SSW 12.7 mph - 0.00 in Rain Light Rain
3:00 PM 51.8 °F 44.6 °F 76% 30.06 in 10.0 mi SSW 13.8 mph - 0.00 in Rain Light Rain
3:53 PM 52.0 °F 44.1 °F 74% 30.08 in 6.0 mi South 11.5 mph - 0.02 in Rain Light Rain
4:53 PM 50.0 °F 44.1 °F 80% 30.11 in 10.0 mi South 15.0 mph - 0.00 in   Overcast
5:53 PM 51.1 °F 44.1 °F 77% 30.12 in 10.0 mi SSW 11.5 mph - N/A   Mostly Cloudy
6:53 PM 50.0 °F 39.9 °F 68% 30.13 in 10.0 mi South 11.5 mph - N/A   Partly Cloudy
7:53 PM 48.0 °F 39.9 °F 74% 30.15 in 10.0 mi South 10.4 mph - N/A   Partly Cloudy
8:53 PM 46.9 °F 39.9 °F 77% 30.16 in 10.0 mi South 9.2 mph - N/A   Clear
9:53 PM 46.9 °F 39.0 °F 74% 30.19 in 10.0 mi SSW 9.2 mph - N/A   Clear
10:53 PM 46.9 °F 39.0 °F 74% 30.19 in 10.0 mi South 9.2 mph - N/A   Clear
11:53 PM 46.9 °F 37.9 °F 71% 30.19 in 10.0 mi SSE 6.9 mph - N/A   Clear